Volver al catálogo

SL-14 DEB

ActivoPO
NORAD 45296·DEBRIS·🇷🇺 Russia

Lanzado Aug 15, 1991 desde Plesetsk Cosmodrome

Loading…

Próximos Pases (próximas 24 horas)

TLE

ActualizadoSource: Space-Track

Época: Sep 14, 2026, 13:18 UTC

1 45296U 91056AJ  26257.55465906  .00003457  00000-0  28467-2 0  9997
2 45296  82.6343 307.9038 0192035  22.9432 338.0161 13.80797598326613

Sigue SL-14 DEB en tiempo real con AllMySat

Download on the App Store